Weather Service Report


913 
ASUS41 KALY 241210
RWRALY

NEW YORK STATE HOURLY WEATHER ROUNDUP
NATIONAL WEATHER SERVICE ALBANY NY
800 AM EDT FRI OCT 24 2014

NOTE: "FAIR" INDICATES FEW OR NO CLOUDS BELOW 12,000 FEET WITH NO
SIGNIFICANT WEATHER AND/OR NO OBSTRUCTIONS TO VISIBILITY.

NYZ032-033-038>043-046>054-057>066-NYZ062>081-241300-
EAST

  
CITY           SKY/WX    TMP DP  RH WIND       PRES   REMARKS
ALBANY         LGT RAIN  46  43  89 N6        29.85R FOG              
GLENS FALLS    CLOUDY    44  43  96 CALM      29.84S FOG              
POUGHKEEPSIE   CLOUDY    49  44  83 CALM      29.82R                  
NEWBURGH       CLOUDY    48  45  87 VRB5      29.83R                  
MONTGOMERY     CLOUDY    50  42  74 NW9       29.81R                  
WHITE PLAINS   MOCLDY    49  44  83 N8        29.80R                  
ISLIP          LGT RAIN  50  46  86 NW12      29.77R                  
NEW YORK CITY  MOCLDY    52  44  74 NW10      29.81R                  
CENTRAL PARK   MOCLDY    51  43  74 MISG      29.83S                  
$$

NYZ005>009-017-018-044>046-055-056-241300-
CENTRAL

  
CITY           SKY/WX    TMP DP  RH WIND       PRES   REMARKS
FULTON         CLEAR     47  44  90 W7        29.94S                  
SYRACUSE       MOCLDY    49  46  90 CALM      29.94S                  
ROME           CLOUDY    46  43  89 W7        29.94R                  
ELMIRA         MOCLDY    40  40 100 W5        29.96S                  
BINGHAMTON     CLOUDY    46  43  89 NW12G20   29.90S                  
MONTICELLO     CLOUDY    45  43  93 NW13      29.85R                  
$$

NYZ026>034-041>043-241300-
NORTH

  
CITY           SKY/WX    TMP DP  RH WIND       PRES   REMARKS
WATERTOWN      MOCLDY    44  39  82 CALM      29.94S                  
FORT DRUM      NOT AVBL                                               
MASSENA        CLOUDY    46  43  89 CALM      29.94S                  
SARANAC LAKE   CLOUDY    40  38  93 VRB7      29.86S                  
PLATTSBURGH    CLOUDY    43  41  93 N13       29.88R                  
$$

NYZ001>004-010>016-019>021-241300-
WEST

  
CITY           SKY/WX    TMP DP  RH WIND       PRES   REMARKS
NIAGARA FALLS  PTCLDY    39  36  89 W3        30.04S                  
BUFFALO        PTCLDY    40  37  89 S3        30.04S                  
DUNKIRK        CLEAR     36  35  96 S5        30.06S WCI  32          
JAMESTOWN        N/A     39  37  93 W6        30.04S VSB 1/2 WCI  35  
WELLSVILLE     CLEAR     39  36  89 NW8       30.01F WCI  33          
ROCHESTER      PTCLDY    45  41  86 W6        30.01R                  
PENN YAN       MOCLDY    48  40  73 W6        29.97S                  
$$

             KEY
       WCI = WIND CHILL INDEX
       VSB = VISIBILITY
       HX  = HEAT INDEX
$$

Return to Home page


Western Regional Climate Center, wrcc@dri.edu